Regional Weather Roundup
Issued by NWS

Home | Current Version | Previous Version | Text Only | Print | Product List | Glossary Off
Versions: 1 2 3 4 5 6 7 8 9 10 11 12 13 14 15 16 17 18 19 20 21 22 23 24 25 26 27 28 29 30 31 32 33 34 35 36 37 38 39 40 41 42 43 44 45 46 47 48 49 50

000
ASUS43 KMKX 232318
RWRWI

WISCONSIN REGIONAL WEATHER ROUNDUP
NATIONAL WEATHER SERVICE MILWAUKEE/SULLIVAN WI
600 PM CDT SAT MAY 23 2015

NOTE: "FAIR" INDICATES FEW OR NO CLOUDS BELOW 12,000 FEET WITH NO
SIGNIFICANT WEATHER AND/OR OBSTRUCTIONS TO VISIBILITY.

WIZ001-002-006>008-014>016-023>028-240000-
NORTHWEST WISCONSIN

CITY           SKY/WX    TMP DP  RH WIND       PRES   REMARKS
SUPERIOR ARPT  PTSUNNY   73  43  33 SW18      30.14R
ASHLAND        MOSUNNY   77  41  27 SW9G20    30.14R
HAYWARD        CLOUDY    69  41  36 SW10      30.20S
SIREN          CLOUDY    68  43  40 SW3       30.20F
CUMBERLAND     LGT RAIN  64  48  55 NE3       30.20F
RICE LAKE      CLOUDY    66  44  44 NW5       30.21S
CHETEK         CLOUDY    69  45  41 N3        30.19F
LADYSMITH      CLOUDY    68  43  41 N6        30.21F
EAU CLAIRE     LGT RAIN  74  41  30 SW5       30.16F
MENOMONIE      CLOUDY    73  41  31 CALM      30.17F
NEW RICHMOND   CLOUDY    69  42  38 NE10      30.18F
OSCEOLA        CLOUDY    63  53  70 N6        30.21F
$$

WIZ003>005-009-010-017-018-240000-
NORTH CENTRAL WISCONSIN

CITY           SKY/WX    TMP DP  RH WIND       PRES   REMARKS
MANITOWISH WTR PTSUNNY   73  37  27 SW8       30.16S
ARBOR VITAE    PTSUNNY   72  35  25 W7        30.17F
WOODRUFF       PTSUNNY   72  35  25 W7        30.17F
RHINELANDER    CLOUDY    72  38  29 SW12      30.19S
EAGLE RIVER    PTSUNNY   74  28  18 W14       30.17S
LAND O LAKES   PTSUNNY   75  23  14 SW3       30.17F
PHILLIPS       CLOUDY    68  39  33 SW15      30.20S
TOMAHAWK       PTSUNNY   70  37  30 W8        30.20S
MEDFORD        LGT RAIN  69  44  39 NW5       30.19F
MERRILL        PTSUNNY   72  42  33 W8        30.20S
$$

WIZ029-030-035-036-043>047-240000-
CENTRAL WISCONSIN

CITY           SKY/WX    TMP DP  RH WIND       PRES   REMARKS
WAUSAU         CLOUDY    73  40  30 W7        30.17F
MOSINEE        PTSUNNY   73  39  29 SW12      30.19
MARSHFIELD     CLOUDY    73  43  33 NW7       30.19F
STEVENS POINT  PTSUNNY   73  36  26 CALM      30.19S
WAUPACA        PTSUNNY   78  36  21 SW5       30.18S
WAUTOMA        MOSUNNY   80  35  19 SW10      30.18F
WISC RAPIDS    PTSUNNY   76  34  21 S9        30.19F
CAMP DOUGLAS   MOSUNNY   76  43  30 S3        30.17F
$$

WIZ011>013-019>022-031-037>040-048>050-240000-
NORTHEAST WISCONSIN

CITY           SKY/WX    TMP DP  RH WIND       PRES   REMARKS
ANTIGO         PTSUNNY   70  44  37 W5        30.20S
SHAWANO        PTSUNNY   78  37  22 SW8       30.16F
OCONTO         MOSUNNY   76  39  26 SW8       30.16F
STURGEON BAY   MOSUNNY   72  39  30 S17G24    30.21F
GREEN BAY      MOSUNNY   78  38  23 S9        30.18F
MANITOWOC      MOSUNNY   69  38  32 S17       30.21F
APPLETON       PTSUNNY   75  36  23 SW6       30.19F
CLINTONVILLE   MOSUNNY   77  32  19 SW8       30.16F
OSHKOSH        PTSUNNY   77  40  26 VRB3      30.18F
$$

WIZ032>034-041-042-053>061-240000-
SOUTHWEST WISCONSIN

CITY           SKY/WX    TMP DP  RH WIND       PRES   REMARKS
LA CROSSE      PTSUNNY   79  44  28 SE8       30.14F
SPARTA         PTSUNNY   75  39  27 SW3       30.17F
VIROQUA        PTSUNNY   76  42  29 S10       30.18F
BOSCOBEL       PTSUNNY   79  44  28 S8        30.16F
PRAIRIE DU CHI CLOUDY    78  40  26 S5        30.15F
PLATTEVILLE    CLOUDY    76  41  28 S9        30.18F
$$

WIZ056-057-062-063-064-067-068-240000-
SOUTH CENTRAL WISCONSIN

CITY           SKY/WX    TMP DP  RH WIND       PRES   REMARKS
REEDSBURG      MOSUNNY   77  44  30 SW6       30.17F
BARABOO/DELLS  MOSUNNY   77  36  22 W3        30.17F
LONE ROCK      MOSUNNY   77  43  29 SW5       30.16F
MINERAL POINT  PTSUNNY   75  37  25 S7        30.19F
MADISON        PTSUNNY   76  39  26 SW6       30.18F
MIDDLETON      SUNNY     80  29  15 S7        30.19F
WATERTOWN      SUNNY     77  40  26 S6        30.19S
MONROE         PTSUNNY   75  43  31 CALM      30.19F
JANESVILLE     MOSUNNY   79  37  22 SW9       30.18
$$

WIZ051-052-058>065-066-070>072-240000-
SOUTHEAST WISCONSIN

CITY           SKY/WX    TMP DP  RH WIND       PRES   REMARKS
MILWAUKEE      MOSUNNY   67  38  34 SE15      30.21F
WAUKESHA       MOSUNNY   75  43  31 SE9       30.21F
MILWAUKEE/TIMM SUNNY     73  36  25 SE10      30.21F
RACINE         SUNNY     66  38  35 SE12      30.23F
BURLINGTON     SUNNY     78  35  20 SW12      30.19F
KENOSHA        SUNNY     71  44  37 SE10      30.21F
FOND DU LAC    CLOUDY    78  37  22 S9        30.19F
SHEBOYGAN      MOSUNNY   70  40  33 S12       30.21F
WEST BEND      SUNNY     72  37  28 SE8       30.20F
JUNEAU         SUNNY     75  41  29 S5        30.20F
$$

LSZ147-162-240000-
LAKE SUPERIOR

STATION/POSITION TIME  TEMP    WIND        PRES    WAVE
                       AIR SEA DIR/SP/G            HT/PER
                 (UTC) (F)     (DEG/KT/KT) (MB)    (FT/S)
W MID LAKE BUOY  2250   53 37  250/ 10/ 10   N/A     1/ 4
DEVILS ISLAND    2300   72     210/  7/  8   N/A
PORT WING        2100   66      40/  2/  4   N/A
SAXON HARBOR     2200   71      80/  2/  6   N/A
$$

LMZ867-665-643>646-240000-
LAKE MICHIGAN

STATION/POSITION TIME  TEMP    WIND        PRES    WAVE
                       AIR SEA DIR/SP/G            HT/PER
                 (UTC) (F)     (DEG/KT/KT) (MB)    (FT/S)
CHAMBERS ISLAND  2200   71     140/  7/ 12   N/A
N MID LAKE BUOY  2250   42 36  200/ 12/ 14   N/A     2/ 4
NORTHPORT PIER   2300   66     180/  9/ 19   N/A
SISTER BAY       2217   71     180/ 14/ 18   N/A
KEWAUNEE LAKESHO 2200   51     180/ 12/ 14   N/A
SHEBOYGAN LAKESH 2300   56     180/ 16/ 17   N/A
PORT WASHINGTON  2200   58     190/  6/  8   N/A
ATWATER BUOY     2200   50 46  160/  4/  6   N/A
MILWAUKEE LAKESH 2200   53     110/  2/  3   N/A
S MID LAKE BUOY  2250   49 38   90/  8/  8   N/A     0
KENOSHA   LAKESH 2300   57     170/  6/  7   N/A
$$

TC  - TEMPERATURE IN CELSIUS
VSB - VISIBILITY IN STATUTE MILES
WCI - WIND CHILL INDEX
HX  - HEAT INDEX




USA.gov is the U.S. government's official web portal to all federal, state and local government web resources and services.